SKYSAT-C3

Last updated on Thu Oct 30 2025 00:02:31 GMT+0000 (Coordinated Universal Time)

1 41774U 16058E 25302.36282557 .00022699 00000+0 52916-3 0 9996 2 41774 96.9376 338.2262 0002213 79.2624 280.8873 15.42246738510418
UTC large
Height (km)
Speed (km/s)
/
Latitude / Longitude
Inclination (degrees)
Orbital Period (minutes)
Azimuth
Elevation
Range (km)
Doppler Factor

Next 0 passes for location: London (51.5072 / 0.1276)

Sorry there are no passes over London.